Location: Lake Harris Campground
(43.9775°N, 74.1317°W)
Time: 14:20:20
(UTC-04:00)

ISS - All Passes

Search period start: 23 September 2014 00:00
Search period end: 03 October 2014 00:00
Orbit: 413 x 416 km, 51.6° (Epoch: 23 September)

Date Brightness Start Highest point End Pass type
(mag) Time Alt. Az. Time Alt. Az. Time Alt. Az.
23 Sep - 00:50:25 10° S 00:52:26 15° SE 00:54:27 10° E night (unlit)
23 Sep - 02:25:26 10° WSW 02:28:45 77° NNW 02:32:06 10° ENE night (unlit)
23 Sep - 04:03:03 10° WNW 04:05:51 24° NNW 04:08:40 10° NE visible
23 Sep - 05:40:33 10° NW 05:43:18 23° N 05:46:03 10° ENE visible
23 Sep - 07:17:09 10° NW 07:20:28 64° NNE 07:23:46 10° ESE daylight
23 Sep - 08:54:29 10° W 08:56:53 19° SW 08:59:16 10° S daylight
24 Sep - 01:36:33 10° SW 01:39:51 65° SE 01:43:10 10° ENE night (unlit)
24 Sep - 03:13:48 10° W 03:16:46 29° NNW 03:19:45 10° NE visible
24 Sep - 04:51:32 10° NW 04:54:11 21° N 04:56:50 10° ENE visible
24 Sep - 06:28:16 10° NW 06:31:29 43° NNE 06:34:41 10° E daylight
24 Sep - 08:05:08 10° WNW 08:08:07 31° SW 08:11:05 10° SSE daylight
25 Sep - 00:47:53 10° SSW 00:50:59 38° SE 00:54:06 10° ENE night (unlit)
25 Sep - 02:24:33 10° W 02:27:42 38° NNW 02:30:51 10° NE night (unlit)
25 Sep - 04:02:24 10° NW 04:05:02 21° N 04:07:40 10° NE visible
25 Sep - 05:39:23 10° NW 05:42:26 32° NNE 05:45:28 10° E visible
25 Sep - 07:16:01 10° WNW 07:19:16 53° SW 07:22:30 10° SE daylight
25 Sep - 23:59:29 10° S 00:02:09 23° SE 00:04:50 10° E night (unlit)
26 Sep - 01:35:23 10° WSW 01:38:39 54° NNW 01:41:56 10° NE night (unlit)
26 Sep - 03:13:09 10° WNW 03:15:52 22° N 03:18:34 10° NE visible
26 Sep - 04:50:26 10° NW 04:53:18 26° NNE 04:56:10 10° ENE visible
26 Sep - 06:26:59 10° WNW 06:30:20 88° SSW 06:33:39 10° ESE daylight
26 Sep - 08:05:07 10° WSW 08:06:34 12° SW 08:08:00 10° SSW daylight
26 Sep - 23:11:37 10° SSE 23:13:22 14° SE 23:15:06 10° E night (unlit)
27 Sep - 00:46:18 10° WSW 00:49:38 85° NNW 00:52:59 10° ENE night (unlit)
27 Sep - 02:23:51 10° WNW 02:26:41 25° NNW 02:29:32 10° NE night (unlit)
27 Sep - 04:01:24 10° NW 04:04:08 23° N 04:06:51 10° ENE visible
27 Sep - 05:38:01 10° NW 05:41:19 58° NNE 05:44:36 10° ESE visible
27 Sep - 07:15:12 10° W 07:17:46 21° SW 07:20:20 10° S daylight
27 Sep - 23:57:22 10° SW 00:00:39 58° SE 00:03:56 10° ENE night (unlit)
28 Sep - 01:34:30 10° W 01:37:31 31° NNW 01:40:32 10° NE night (unlit)
28 Sep - 03:12:16 10° NW 03:14:55 21° N 03:17:33 10° NE visible
28 Sep - 04:49:03 10° NW 04:52:14 40° NNE 04:55:23 10° E visible
28 Sep - 06:25:50 10° WNW 06:28:54 34° SW 06:31:57 10° SSE daylight
28 Sep - 23:08:39 10° SSW 23:11:42 34° SE 23:14:45 10° ENE night (unlit)
29 Sep - 00:45:11 10° W 00:48:21 41° NNW 00:51:33 10° NE night (unlit)
29 Sep - 02:23:01 10° NW 02:25:40 21° N 02:28:18 10° NE night (unlit)
29 Sep - 04:00:03 10° NW 04:03:04 30° NNE 04:06:04 10° E visible
29 Sep - 05:36:39 10° WNW 05:39:56 59° SW 05:43:13 10° SE visible
29 Sep - 22:20:15 10° S 22:22:47 20° SE 22:25:19 10° E night (unlit)
29 Sep - 23:55:56 10° WSW 23:59:13 60° NNW 00:02:32 10° NE night (unlit)
30 Sep - 01:33:40 10° WNW 01:36:24 23° N 01:39:08 10° NE night (unlit)
30 Sep - 03:11:00 10° NW 03:13:50 25° NNE 03:16:40 10° ENE visible
30 Sep - 04:47:33 10° WNW 04:50:54 83° NNE 04:54:13 10° ESE visible
30 Sep - 06:25:22 10° W 06:27:10 14° SW 06:28:59 10° SSW visible
30 Sep - 21:32:34 10° SSE 21:33:54 12° SE 21:35:15 10° ESE night (unlit)
30 Sep - 23:06:47 10° SW 23:10:07 86° SSE 23:13:28 10° ENE night (unlit)
01 Oct - 00:44:15 10° WNW 00:47:08 26° NNW 00:50:01 10° NE night (unlit)
01 Oct - 02:21:51 10° NW 02:24:33 22° N 02:27:15 10° ENE night (unlit)
01 Oct - 03:58:29 10° NW 04:01:46 53° NNE 04:05:02 10° ESE visible
01 Oct - 05:35:33 10° W 05:38:16 23° SW 05:40:59 10° S visible
01 Oct - 22:17:49 10° SW 22:21:03 51° SE 22:24:18 10° ENE night (unlit)
01 Oct - 23:54:49 10° W 23:57:52 33° NNW 00:00:56 10° NE night (unlit)
02 Oct - 01:32:36 10° NW 01:35:14 21° N 01:37:52 10° NE night (unlit)
02 Oct - 03:09:26 10° NW 03:12:34 37° NNE 03:15:42 10° E night (unlit)
02 Oct - 04:46:09 10° WNW 04:49:17 39° SW 04:52:24 10° SSE visible
02 Oct - 21:29:04 10° SSW 21:32:01 30° SE 21:34:59 10° ENE night (unlit)
02 Oct - 23:05:24 10° W 23:08:37 44° NNW 23:11:51 10° NE night (unlit)
